Location: Climax
(33.2048°N, 96.4497°W)
Time: 11:13:02
(UTC+00:00)

Cosmos 1805 Rocket - Pass Details

Date: 08 July 2022
Orbit: 605 x 629 km, 82.5° (Epoch: 10 August)

Event Time Altitude Azimuth Distance (km) Brightness Sun altitude
Exits shadow 08:32:15 30° 101° (E) 1,127 5.0 -27.3°
Maximum altitude 08:32:38 30° 90° (E) 1,115 5.1 -27.2°
Drops below altitude 10° 08:36:28 10° 30° (NNE) 1,984 7.2 -26.8°
Sets 08:38:53 0° 19° (NNE) 2,888 8.2 -26.5°
